EW6171 Weather Reports


Display with metric or nautical units.
time (UTC)temp
F
wind
direction
speed
MPH
gust
MPH
rain 1hr
in
rain 24hr
in
rain mn
in
humidity
%
barometer
mb
20260506091118 0 117 0.0 1.0 0.00 0.00 0.00 1005.0
20260506090609 0 113 0.0 1.0 0.00 0.00 0.00 1005.1
20260506090057 0 113 0.0 2.0 0.00 0.00 0.00 1005.0
20260506085549 0 129 0.0 2.0 0.00 0.00 0.00 1005.0
20260506085038 0 140 1.0 2.0 0.00 0.00 0.00 1005.0
20260506084528 0 143 1.0 3.0 0.00 0.00 0.00 1005.0
20260506084018 0 135 1.0 3.0 0.00 0.00 0.00 1005.0
20260506083506 0 127 2.0 4.0 0.00 0.00 0.00 1005.0
20260506082956 0 126 2.0 4.0 0.00 0.00 0.00 1005.1
20260506082452 0 116 2.0 6.0 0.00 0.00 0.00 1005.1
20260506081942 0 133 3.0 4.0 0.00 0.00 0.00 1005.1
20260506081704 0 123 3.0 6.0 0.00 0.00 0.00 1005.0
20260506080922 0 128 3.0 5.0 0.00 0.00 0.00 1005.1
20260506080410 0 138 2.0 6.0 0.00 0.00 0.00 1005.2
20260506080124 0 133 2.0 6.0 0.00 0.00 0.00 1005.3
20260506073304 0 10 5.0 10.0 0.00 0.00 0.00 1005.6
20260506072752 0 10 5.0 10.0 0.00 0.00 0.00 1005.6
20260506072513 0 161 4.0 9.0 0.00 0.00 0.00 1005.7
20260506071732 0 10 3.0 9.0 0.00 0.00 0.00 1005.7
20260506071223 0 10 3.0 6.0 0.00 0.00 0.00 1005.9
20260506070712 0 10 3.0 6.0 0.00 0.00 0.00 1006.0
20260506070203 0 138 3.0 6.0 0.00 0.00 0.00 1006.2
20260506062044 0 10 4.0 9.0 0.00 0.00 0.00 1006.3
20260506061534 0 10 3.0 9.0 0.00 0.00 0.00 1006.3
20260506061023 0 10 4.0 9.0 0.00 0.00 0.00 1006.3
20260506060512 0 10 4.0 10.0 0.00 0.00 0.00 1006.3
20260506051350 0 10 9.0 13.0 0.00 0.00 0.00 1005.9
20260506050843 0 10 9.0 13.0 0.00 0.00 0.00 1005.9
20260506050338 0 194 9.0 12.0 0.00 0.00 0.00 1005.9
20260506044820 0 10 11.0 15.0 0.00 0.00 0.00 1005.8
20260506044318 0 10 9.0 15.0 0.00 0.00 0.00 1005.8
20260506043808 0 10 8.0 14.0 0.00 0.00 0.00 1005.8
20260506043305 0 10 9.0 14.0 0.00 0.00 0.00 1005.8
20260506042801 0 10 10.0 14.0 0.00 0.00 0.00 1005.7
20260506042254 0 10 10.0 13.0 0.00 0.00 0.00 1005.6
20260506041748 0 164 10.0 13.0 0.00 0.00 0.00 1005.7
20260506041245 0 10 9.0 13.0 0.00 0.00 0.00 1005.7
20260506040737 0 10 9.0 12.0 0.00 0.00 0.00 1005.7
20260506040232 0 10 10.0 12.0 0.00 0.00 0.00 1005.9
20260506035959 0 10 10.0 12.0 0.00 0.00 0.00 1005.8
20260506035217 0 10 9.0 12.0 0.00 0.00 0.00 1005.7
20260506034947 0 10 8.0 12.0 0.00 0.00 0.00 1005.7
20260506034205 0 10 9.0 13.0 0.00 0.00 0.00 1005.7
20260506033702 0 10 9.0 13.0 0.00 0.00 0.00 1005.7
20260506033150 0 10 9.0 12.0 0.00 0.00 0.00 1005.6
20260506032645 0 10 8.0 12.0 0.00 0.00 0.00 1005.6
20260506032141 0 10 9.0 12.0 0.00 0.00 0.00 1005.5
20260506031639 0 10 7.0 12.0 0.00 0.00 0.00 1005.5
20260506031128 0 138 6.0 12.0 0.00 0.00 0.00 1005.5
20260506030855 0 10 7.0 12.0 0.00 0.00 0.00 1005.5
20260506030119 0 10 9.0 12.0 0.00 0.00 0.00 1005.4
20260506025612 0 10 9.0 14.0 0.00 0.00 0.00 1005.3
20260506025334 0 10 9.0 14.0 0.00 0.00 0.00 1005.2
20260506024556 0 10 8.0 11.0 0.00 0.00 0.00 1005.1
20260506024320 0 10 8.0 12.0 0.00 0.00 0.00 1005.1
20260506023809 0 10 9.0 12.0 0.00 0.00 0.00 1004.9
20260506022524 0 10 9.0 14.0 0.00 0.00 0.00 1004.8
20260506022015 0 10 9.0 12.0 0.00 0.00 0.00 1004.7
20260506021515 0 10 9.0 14.0 0.00 0.00 0.00 1004.7
20260506021016 0 10 9.0 14.0 0.00 0.00 0.00 1004.7
20260506020507 0 10 6.0 12.0 0.00 0.00 0.00 1004.6
20260506020228 0 10 2.0 12.0 0.00 0.00 0.00 1004.5
20260506015447 0 10 0.0 5.0 0.00 0.00 0.00 1004.5
20260506014937 0 147 2.0 12.0 0.00 0.00 0.00 1004.4
20260506014425 0 10 3.0 12.0 0.00 0.00 0.00 1004.3
20260506013915 0 10 5.0 14.0 0.00 0.00 0.00 1004.4
20260506013636 0 10 9.0 14.0 0.00 0.00 0.00 1004.4
20260506012854 0 10 9.0 13.0 0.00 0.00 0.00 1004.3
20260506012345 0 10 10.0 13.0 0.00 0.00 0.00 1004.2
20260506011833 0 10 11.0 12.0 0.00 0.00 0.00 1004.1
20260506011553 0 10 11.0 14.0 0.00 0.00 0.00 1004.0
20260506010813 0 10 11.0 14.0 0.00 0.00 0.00 1003.9
20260506010303 0 10 11.0 15.0 0.00 0.00 0.00 1004.0
20260506010023 0 10 11.0 15.0 0.00 0.00 0.00 1003.8
20260506005243 0 10 10.0 13.0 0.00 0.00 0.00 1003.8
20260506004732 0 10 10.0 15.0 0.00 0.00 0.00 1003.6
20260506004223 0 10 11.0 15.0 0.00 0.00 0.00 1003.6
20260506003943 0 10 10.0 14.0 0.00 0.00 0.00 1003.6
20260506003203 0 10 10.0 13.0 0.00 0.00 0.00 1003.7
20260506002652 0 10 11.0 15.0 0.00 0.00 0.00 1003.6
20260506002140 0 10 11.0 15.0 0.00 0.00 0.00 1003.6
20260506001625 0 10 11.0 15.0 0.00 0.00 0.00 1003.6
20260506001347 0 10 11.0 15.0 0.00 0.00 0.00 1003.6
20260506000604 0 10 11.0 14.0 0.00 0.00 0.00 1003.6
20260506000056 0 10 11.0 15.0 0.00 0.00 0.00 1003.7
20260505235543 0 10 11.0 15.0 0.00 0.00 0.00 1003.7
20260505235033 0 10 11.0 16.0 0.00 0.00 0.00 1003.7
20260505234528 0 185 12.0 16.0 0.00 0.00 0.00 1003.7
20260505234019 0 10 12.0 16.0 0.00 0.00 0.00 1003.7
20260505233739 0 168 11.0 15.0 0.00 0.00 0.00 1003.7
20260505233227 0 10 11.0 16.0 0.00 0.00 0.00 1003.7
20260505232456 0 10 12.0 16.0 0.00 0.00 0.00 1003.7
20260505232218 0 10 12.0 16.0 0.00 0.00 0.00 1003.7
20260505231434 0 10 11.0 16.0 0.00 0.00 0.00 1003.7
20260505230933 0 10 11.0 15.0 0.00 0.00 0.00 1003.7
20260505230434 0 10 11.0 15.0 0.00 0.00 0.00 1003.9
20260505225923 0 210 11.0 14.0 0.00 0.00 0.00 1003.9
20260505225412 0 163 11.0 17.0 0.00 0.00 0.00 1003.9
20260505224903 0 10 12.0 17.0 0.00 0.00 0.00 1003.9
20260505224352 0 10 12.0 16.0 0.00 0.00 0.00 1003.9
20260505223843 0 10 12.0 16.0 0.00 0.00 0.00 1004.0
20260505223604 0 10 12.0 15.0 0.00 0.00 0.00 1004.0
20260505222824 0 10 12.0 15.0 0.00 0.00 0.00 1004.1
20260505222313 0 10 12.0 15.0 0.00 0.00 0.00 1004.0
20260505221803 0 10 11.0 14.0 0.00 0.00 0.00 1004.1
20260505221252 0 10 11.0 15.0 0.00 0.00 0.00 1004.1
20260505220743 0 10 11.0 15.0 0.00 0.00 0.00 1004.0
20260505220504 0 10 12.0 16.0 0.00 0.00 0.00 1004.2
20260505215723 0 10 12.0 16.0 0.00 0.00 0.00 1004.2
20260505215212 0 161 11.0 15.0 0.00 0.00 0.00 1004.4
20260505214702 0 10 11.0 15.0 0.00 0.00 0.00 1004.4
20260505214423 0 10 11.0 15.0 0.00 0.00 0.00 1004.6
20260505213643 0 10 11.0 14.0 0.00 0.00 0.00 1004.5
20260505213404 0 10 12.0 16.0 0.00 0.00 0.00 1004.6
20260505212624 0 153 11.0 16.0 0.00 0.00 0.00 1004.6
20260505212112 0 163 11.0 15.0 0.00 0.00 0.00 1004.8
20260505211603 0 10 11.0 14.0 0.00 0.00 0.00 1004.7
20260505211052 0 10 11.0 15.0 0.00 0.00 0.00 1004.7
20260505210544 0 10 11.0 15.0 0.00 0.00 0.00 1004.8
20260505210303 0 10 11.0 15.0 0.00 0.00 0.00 1004.8
20260505205523 0 10 10.0 15.0 0.00 0.00 0.00 1004.8
20260505205012 0 10 11.0 14.0 0.00 0.00 0.00 1004.9
20260505204503 0 10 11.0 15.0 0.00 0.00 0.00 1004.9
20260505204224 0 10 12.0 15.0 0.00 0.00 0.00 1005.0
20260505203442 0 158 12.0 15.0 0.00 0.00 0.00 1005.1
20260505202932 0 145 12.0 15.0 0.00 0.00 0.00 1005.1
20260505202422 0 10 12.0 15.0 0.00 0.00 0.00 1005.2
20260505201904 0 10 11.0 14.0 0.00 0.00 0.00 1005.2
20260505201354 0 184 11.0 16.0 0.00 0.00 0.00 1005.3
20260505200844 0 10 11.0 16.0 0.00 0.00 0.00 1005.3
20260505200334 0 10 9.0 15.0 0.00 0.00 0.00 1005.4
20260505200055 0 10 9.0 14.0 0.00 0.00 0.00 1005.6
20260505195314 0 10 10.0 16.0 0.00 0.00 0.00 1005.7
20260505194804 0 204 11.0 16.0 0.00 0.00 0.00 1005.7
20260505194255 0 10 10.0 16.0 0.00 0.00 0.00 1005.7
20260505193744 0 10 9.0 16.0 0.00 0.00 0.00 1005.7
20260505193238 0 10 11.0 15.0 0.00 0.00 0.00 1005.7
20260505192730 0 10 11.0 15.0 0.00 0.00 0.00 1005.8
20260505192453 0 214 10.0 16.0 0.00 0.00 0.00 1005.8
20260505191713 0 202 11.0 16.0 0.00 0.00 0.00 1005.8
20260505191206 0 10 11.0 15.0 0.00 0.00 0.00 1005.8
20260505190704 0 10 11.0 15.0 0.00 0.00 0.00 1005.9
20260505190203 0 191 11.0 15.0 0.00 0.00 0.00 1005.9
20260505185655 0 214 12.0 16.0 0.00 0.00 0.00 1006.0
20260505185141 0 192 11.0 15.0 0.00 0.00 0.00 1006.0
20260505184635 0 195 11.0 15.0 0.00 0.00 0.00 1005.9
20260505184358 0 10 10.0 16.0 0.00 0.00 0.00 1005.9
20260505183852 0 233 10.0 16.0 0.00 0.00 0.00 1005.9
20260505183116 0 10 11.0 16.0 0.00 0.00 0.00 1006.0
20260505182610 0 221 11.0 16.0 0.00 0.00 0.00 1006.1
20260505182107 0 173 11.0 15.0 0.00 0.00 0.00 1006.0
20260505181603 0 181 11.0 16.0 0.00 0.00 0.00 1006.1
20260505181059 0 192 11.0 16.0 0.00 0.00 0.00 1006.1
20260505180556 0 217 11.0 14.0 0.00 0.00 0.00 1006.1
20260505180048 0 203 11.0 16.0 0.00 0.00 0.00 1006.1
20260505175542 0 204 11.0 16.0 0.00 0.00 0.00 1006.1
20260505175042 0 215 12.0 16.0 0.00 0.00 0.00 1006.2
20260505174537 0 223 12.0 16.0 0.00 0.00 0.00 1006.2
20260505174035 0 201 12.0 16.0 0.00 0.00 0.00 1006.2
20260505173534 0 205 11.0 15.0 0.00 0.00 0.00 1006.4
20260505173028 0 217 11.0 15.0 0.00 0.00 0.00 1006.5
20260505172757 0 10 10.0 13.0 0.00 0.00 0.00 1006.5
20260505172018 0 219 10.0 15.0 0.00 0.00 0.00 1006.5
20260505171747 0 198 11.0 15.0 0.00 0.00 0.00 1006.5
20260505171013 0 10 11.0 15.0 0.00 0.00 0.00 1006.5
20260505170742 0 10 11.0 15.0 0.00 0.00 0.00 1006.6
20260505170011 0 10 12.0 15.0 0.00 0.00 0.00 1006.6
20260505165505 0 10 11.0 15.0 0.00 0.00 0.00 1006.7
20260505165002 0 194 11.0 15.0 0.00 0.00 0.00 1006.6
20260505164726 0 203 10.0 15.0 0.00 0.00 0.00 1006.6
20260505163950 0 10 10.0 15.0 0.00 0.00 0.00 1006.6
20260505163443 0 193 11.0 16.0 0.00 0.00 0.00 1006.6
20260505162936 0 221 11.0 16.0 0.00 0.00 0.00 1006.5
20260505162426 0 10 10.0 14.0 0.00 0.00 0.00 1006.5
20260505161920 0 10 10.0 14.0 0.00 0.00 0.00 1006.5
20260505161416 0 202 10.0 15.0 0.00 0.00 0.00 1006.5
20260505161137 0 10 10.0 15.0 0.00 0.00 0.00 1006.5
20260505160358 0 10 10.0 15.0 0.00 0.00 0.00 1006.5
20260505153314 0 210 10.0 15.0 0.00 0.00 0.00 1006.5
20260505152804 0 198 10.0 13.0 0.00 0.00 0.00 1006.4
20260505151744 0 215 9.0 13.0 0.00 0.00 0.00 1006.4
20260505151239 0 201 10.0 13.0 0.00 0.00 0.00 1006.4
20260505150729 0 10 9.0 13.0 0.00 0.00 0.00 1006.4
20260505150220 0 181 9.0 14.0 0.00 0.00 0.00 1006.4
20260505140527 0 10 9.0 13.0 0.00 0.00 0.00 1006.3
20260505124755 0 10 8.0 12.0 0.00 0.00 0.00 1005.8
20260505124245 0 202 7.0 11.0 0.00 0.00 0.00 1005.8
20260505124004 0 202 7.0 11.0 0.00 0.00 0.00 1005.8
20260505123224 0 10 8.0 12.0 0.00 0.00 0.00 1005.7
20260505122714 0 219 8.0 12.0 0.00 0.00 0.00 1005.7
20260505122207 0 10 7.0 11.0 0.00 0.00 0.00 1005.7
20260505121657 0 10 6.0 9.0 0.00 0.00 0.00 1005.7
20260505121157 0 10 6.0 10.0 0.00 0.00 0.00 1005.7
20260505120918 0 10 5.0 10.0 0.00 0.00 0.00 1005.7
20260505120140 0 10 6.0 10.0 0.00 0.00 0.00 1005.6
20260505115630 0 10 6.0 10.0 0.00 0.00 0.00 1005.6
20260505115119 0 10 6.0 9.0 0.00 0.00 0.00 1005.5
20260505114609 0 10 5.0 9.0 0.00 0.00 0.00 1005.5
20260505114331 0 10 5.0 9.0 0.00 0.00 0.00 1005.5
20260505113549 0 10 5.0 9.0 0.00 0.00 0.00 1005.5
20260505113040 0 10 4.0 9.0 0.00 0.00 0.00 1005.5
20260505112801 0 186 4.0 6.0 0.00 0.00 0.00 1005.7
20260505112251 0 10 4.0 8.0 0.00 0.00 0.00 1005.6
20260505111507 0 10 4.0 8.0 0.00 0.00 0.00 1005.6
20260505110958 0 10 4.0 6.0 0.00 0.00 0.00 1005.6
20260505110447 0 184 4.0 6.0 0.00 0.00 0.00 1005.6
20260505101811 0 10 2.0 5.0 0.00 0.00 0.00 1005.5
20260505100744 0 194 3.0 5.0 0.00 0.00 0.00 1005.7
20260505100233 0 184 3.0 6.0 0.00 0.00 0.00 1005.7
20260505095721 0 192 2.0 5.0 0.00 0.00 0.00 1005.8
20260505095209 0 190 3.0 5.0 0.00 0.00 0.00 1005.8
20260505094931 0 10 3.0 5.0 0.00 0.00 0.00 1005.7
20260505094148 0 172 3.0 5.0 0.00 0.00 0.00 1005.7
20260505093916 0 190 3.0 6.0 0.00 0.00 0.00 1005.8
20260505093403 0 10 2.0 6.0 0.00 0.00 0.00 1005.8
20260505092621 0 10 1.0 5.0 0.00 0.00 0.00 1005.8
20260505092116 0 10 1.0 4.0 0.00 0.00 0.00 1005.8
20260505091613 0 189 2.0 5.0 0.00 0.00 0.00 1005.9